DeKalb, IL

5:43 PM CDT on September 19, 2017 (GMT -0500)
De Kalb Taylor Municipal

Weather History for KDKB - October, 2013

Change the Weather History Date:

Tuesday, October 8, 2013

  Actual Average (KARR) Record (KARR)
Temperature  
Mean Temperature 60 °F -  
Max Temperature 75 °F 64 °F 87 °F (1997)
Min Temperature 45 °F 39 °F 24 °F (2000)
Degree Days  
Heating Degree Days 5    
Growing Degree Days 10 (Base 50)    
Moisture  
Dew Point 48 °F    
Average Humidity 68    
Maximum Humidity 90    
Minimum Humidity 35    
Precipitation  
Precipitation 0.00 in - - ()
Sea Level Pressure  
Sea Level Pressure 30.15 in    
Wind  
Wind Speed 4 mph (South)    
Max Wind Speed 13 mph    
Max Gust Speed 17 mph    
Visibility 10 miles    
Events      
Averages and records for this station are not official NWS values.
T = Trace of Precipitation, MM = Missing Value Source: NWS Daily Summary

Daily Weather History Graph

Daily Weather History Graph

Search for Another Location

Airport or City:

Trip Planner

Search our weather history database for the weather conditions in past years. The results will help you decide how hot, cold, wet, or windy it might be!

Date:

Astronomy

Oct. 08, 2013 Rise Set
Actual Time 6:59 AM CDT 6:24 PM CDT
Civil Twilight 6:31 AM CDT 6:52 PM CDT
Nautical Twilight 5:59 AM CDT 7:24 PM CDT
Astronomical Twilight 5:27 AM CDT 7:56 PM CDT
Moon 10:57 AM CDT (10/8) 8:57 PM CDT (10/8)
Length of Visible Light 12h 20m
Length of Day
11h 24m
Waxing Crescent, 16% of the Moon is Illuminated
Oct 8
Waxing Crescent
Oct 11
First Quarter
Oct 18
Full
Oct 26
Last Quarter
Nov 3
New

Hourly Weather History & Observations

Time (CDT) Temp. Windchill Dew Point Humidity Pressure Visibility Wind Dir Wind Speed Gust Speed Precip Events Conditions
12:15 AM 52.9 °F - 47.3 °F 81% 30.09 in 10.0 mi NNE 3.5 mph - N/A   Clear
12:35 AM 50.4 °F - 45.7 °F 84% 30.09 in 10.0 mi Calm Calm - N/A   Clear
12:55 AM 48.2 °F - 44.6 °F 87% 30.09 in 10.0 mi NE 3.5 mph - N/A   Clear
1:15 AM 50.0 °F - 45.3 °F 84% 30.10 in 10.0 mi Calm Calm - N/A   Clear
1:35 AM 48.0 °F - 44.1 °F 86% 30.11 in 10.0 mi Calm Calm - N/A   Clear
1:55 AM 48.6 °F - 44.6 °F 86% 30.11 in 10.0 mi Calm Calm - N/A   Clear
2:15 AM 50.9 °F - 46.2 °F 84% 30.11 in 10.0 mi Calm Calm - N/A   Clear
2:35 AM 48.2 °F - 43.7 °F 84% 30.11 in 10.0 mi Calm Calm - N/A   Clear
2:55 AM 46.9 °F - 43.3 °F 87% 30.11 in 10.0 mi Calm Calm - N/A   Clear
3:15 AM 48.2 °F - 44.1 °F 86% 30.11 in 10.0 mi Calm Calm - N/A   Clear
3:35 AM 47.8 °F - 43.3 °F 84% 30.11 in 10.0 mi Calm Calm - N/A   Clear
3:55 AM 49.5 °F - 45.3 °F 86% 30.11 in 10.0 mi Calm Calm - N/A   Clear
4:15 AM 47.3 °F - 43.9 °F 88% 30.11 in 10.0 mi Calm Calm - N/A   Clear
4:55 AM 47.7 °F - 43.7 °F 86% 30.13 in 10.0 mi Calm Calm - N/A   Clear
5:15 AM 48.4 °F - 44.8 °F 87% 30.13 in 10.0 mi Calm Calm - N/A   Clear
5:35 AM 47.7 °F - 44.4 °F 89% 30.14 in 10.0 mi Calm Calm - N/A   Clear
5:55 AM 45.9 °F - 42.6 °F 88% 30.14 in 10.0 mi Calm Calm - N/A   Clear
6:15 AM 46.4 °F 45.2 °F 43.5 °F 90% 30.15 in 10.0 mi SW 3.5 mph - N/A   Clear
6:35 AM 45.3 °F - 42.4 °F 90% 30.15 in 10.0 mi Calm Calm - N/A   Clear
6:55 AM 45.1 °F 43.7 °F 42.1 °F 89% 30.15 in 10.0 mi South 3.5 mph - N/A   Clear
7:15 AM 46.6 °F - 43.7 °F 90% 30.16 in 10.0 mi Calm Calm - N/A   Clear
7:35 AM 46.4 °F 45.2 °F 42.8 °F 87% 30.16 in 10.0 mi South 3.5 mph - N/A   Clear
7:55 AM 48.2 °F - 45.1 °F 89% 30.16 in 10.0 mi South 3.5 mph - N/A   Clear
8:15 AM 50.9 °F - 47.7 °F 89% 30.17 in 10.0 mi South 3.5 mph - N/A   Clear
8:35 AM 51.8 °F - 48.2 °F 88% 30.18 in 10.0 mi South 4.6 mph - N/A   Clear
8:55 AM 54.5 °F - 50.7 °F 87% 30.18 in 10.0 mi Calm Calm - N/A   Clear
9:15 AM 58.1 °F - 52.5 °F 82% 30.18 in 10.0 mi South 3.5 mph - N/A   Clear
9:35 AM 60.6 °F - 53.8 °F 78% 30.19 in 10.0 mi SSW 4.6 mph - N/A   Clear
9:55 AM 63.7 °F - 55.2 °F 74% 30.19 in 10.0 mi SW 4.6 mph - N/A   Clear
10:15 AM 65.5 °F - 54.7 °F 68% 30.19 in 10.0 mi SW 4.6 mph - N/A   Clear
10:35 AM 67.5 °F - 53.8 °F 61% 30.19 in 10.0 mi SW 4.6 mph - N/A   Clear
10:55 AM 68.9 °F - 52.5 °F 56% 30.19 in 10.0 mi WSW 3.5 mph - N/A   Clear
11:15 AM 70.2 °F - 52.2 °F 53% 30.18 in 10.0 mi WSW 4.6 mph - N/A   Clear
11:35 AM 71.6 °F - 52.0 °F 50% 30.18 in 10.0 mi SW 6.9 mph - N/A   Clear
11:55 AM 73.0 °F - 49.6 °F 44% 30.18 in 10.0 mi WSW 10.4 mph - N/A   Clear
12:15 PM 73.8 °F - 48.7 °F 41% 30.17 in 10.0 mi SSW 8.1 mph - N/A   Clear
12:35 PM 74.5 °F - 47.3 °F 38% 30.17 in 10.0 mi South 8.1 mph - N/A   Clear
12:55 PM 74.5 °F - 48.0 °F 39% 30.17 in 10.0 mi SSW 10.4 mph 13.8 mph N/A   Clear
1:35 PM 75.2 °F - 49.5 °F 40% 30.15 in 10.0 mi SW 11.5 mph 16.1 mph N/A   Clear
1:55 PM 75.4 °F - 48.2 °F 38% 30.15 in 10.0 mi South 10.4 mph 17.3 mph N/A   Clear
2:35 PM 75.7 °F - 46.4 °F 35% 30.14 in 10.0 mi SSW 10.4 mph - N/A   Clear
2:55 PM 75.7 °F - 46.4 °F 35% 30.14 in 10.0 mi SSW 9.2 mph - N/A   Clear
3:35 PM 75.7 °F - 46.8 °F 36% 30.13 in 10.0 mi South 11.5 mph - N/A   Clear
3:55 PM 75.9 °F - 48.6 °F 38% 30.12 in 10.0 mi SSW 9.2 mph 16.1 mph N/A   Clear
4:15 PM 75.7 °F - 47.1 °F 36% 30.12 in 10.0 mi South 11.5 mph - N/A   Clear
4:35 PM 75.2 °F - 45.7 °F 35% 30.13 in 10.0 mi South 12.7 mph - N/A   Clear
4:55 PM 74.5 °F - 46.2 °F 37% 30.13 in 10.0 mi South 10.4 mph - N/A   Clear
5:15 PM 73.6 °F - 48.6 °F 41% 30.13 in 10.0 mi SSE 8.1 mph - N/A   Clear
5:35 PM 73.0 °F - 47.5 °F 40% 30.13 in 10.0 mi South 9.2 mph - N/A   Clear
5:55 PM 70.7 °F - 49.1 °F 46% 30.13 in 10.0 mi South 6.9 mph - N/A   Clear
6:15 PM 67.8 °F - 48.9 °F 51% 30.14 in 10.0 mi SSE 6.9 mph - N/A   Clear
6:35 PM 64.8 °F - 49.1 °F 57% 30.14 in 10.0 mi SSE 8.1 mph - N/A   Clear
6:55 PM 61.7 °F - 49.3 °F 64% 30.14 in 10.0 mi SSE 6.9 mph - N/A   Clear
7:15 PM 61.0 °F - 49.1 °F 65% 30.14 in 10.0 mi SSE 6.9 mph - N/A   Clear
7:35 PM 63.1 °F - 49.3 °F 61% 30.14 in 10.0 mi SSE 8.1 mph - N/A   Clear
8:15 PM 61.7 °F - 49.5 °F 64% 30.15 in 10.0 mi SSE 9.2 mph - N/A   Clear
8:35 PM 62.2 °F - 49.3 °F 63% 30.15 in 10.0 mi SSE 8.1 mph - N/A   Clear
8:55 PM 58.5 °F - 49.3 °F 72% 30.16 in 10.0 mi SSE 6.9 mph - N/A   Clear
9:15 PM 59.9 °F - 49.3 °F 68% 30.16 in 10.0 mi SSE 8.1 mph - N/A   Clear
9:35 PM 56.7 °F - 49.3 °F 76% 30.16 in 10.0 mi SSE 6.9 mph - N/A   Clear
9:55 PM 56.8 °F - 48.9 °F 75% 30.16 in 10.0 mi SSE 5.8 mph - N/A   Clear
10:15 PM 56.5 °F - 49.1 °F 76% 30.17 in 10.0 mi SSE 8.1 mph - N/A   Clear
10:35 PM 57.9 °F - 50.0 °F 75% 30.16 in 10.0 mi SSE 9.2 mph - N/A   Clear
10:55 PM 57.0 °F - 49.5 °F 76% 30.17 in 10.0 mi SSE 8.1 mph - N/A   Clear
11:15 PM 56.7 °F - 49.3 °F 76% 30.16 in 10.0 mi SSE 9.2 mph - N/A   Clear
11:35 PM 55.6 °F - 49.1 °F 79% 30.16 in 10.0 mi SSE 8.1 mph - N/A   Clear
11:55 PM 53.8 °F - 48.2 °F 81% 30.16 in 10.0 mi SSE 5.8 mph - N/A   Clear